Location: The Saddle
(36.8333°N, 80.3417°W)
Time: 10:12:50
(UTC-05:00)

Courier 1B Rocket - Visible Passes

Search period start: 11 December 2023 00:00
Search period end: 21 December 2023 00:00
Orbit: 920 x 1201 km, 28.2° (Epoch: 10 December)

Date Brightness Start Highest point End Pass type
(mag) Time Alt. Az. Time Alt. Az. Time Alt. Az.
13 Dec 8.1 06:30:37 10° SSE 06:32:36 11° SSE 06:34:34 10° SE visible
15 Dec 7.7 06:18:40 10° S 06:23:18 17° SSE 06:27:51 10° ESE visible
16 Dec 7.9 05:19:44 10° S 05:22:16 12° SSE 05:24:47 10° SE visible
17 Dec 7.4 06:08:10 10° SSW 06:13:59 23° SSE 06:19:44 10° ESE visible
18 Dec 7.6 05:08:09 10° S 05:12:55 17° SSE 05:17:41 10° ESE visible
19 Dec 7.7 04:09:14 10° S 04:11:54 12° SSE 04:14:36 10° SE visible
19 Dec 7.0 05:58:11 10° SW 06:04:43 29° SSE 06:11:10 10° ESE visible
20 Dec 7.2 04:58:16 12° SSW 05:03:36 23° SSE 05:09:29 10° ESE visible
20 Dec 6.6 06:49:28 10° WSW 06:56:39 40° S 07:03:43 10° ESE visible
